User: anonymous   Login
Location: Bishopstone
(51.0167°N, 1.9000°W)
Time: 17:00:19
(UTC+00:00)
Language:

ATLAS 2AS CENTAUR R/B - Orbit

View from above orbital plane
View from above orbital plane
View from above satellite
View from above satellite

Ground track
Ground track

The orbit data is extracted from the following two-line orbital elements,

1 28096U 03054B   19313.07023549 0.00000000  00000-0  00000-0 0    07
2 28096  63.6873   6.6839 0240258 237.9807 122.0193 13.40856316    04
Epoch (UTC): 09 November 2019 01:41:08
Eccentricity: 0.0240258
inclination: 63.6873°
perigee height: 926 km
apogee height: 1286 km
right ascension of ascending node: 6.6839°
argument of perigee: 237.9807°
revolutions per day: 13.40856316
mean anomaly at epoch: 122.0193°
orbit number at epoch: 0

The dashed part of the orbit path shows where the satellite is in the earth's shadow,  

DLR